This demonstration page uses our WeatherBlox Daily Observations layout. Learn more.

Left ArrowRight Arrow

44.89941, -97.11507

Hourly Observations for July 18, 2016

Temp ( °F °C ) Dew Point ( °F °C ) Humidity (%) Winds ( mph kmh ) Pressure ( in mb ) Visibility ( mi km ) Precip ( " mm )
12:53 am 00:53 Clear 64 17.8 59 15 84 84 Calm 30.10 1019 10 16 0.00 0.00
1:53 am 01:53 Clear 63 17.2 59 15 87 87 Calm 30.11 1020 10 16 0.00 0.00
2:53 am 02:53 Clear 62 16.7 59 15 90 90 Calm 30.10 1019 10 16 0.00 0.00
3:53 am 03:53 Clear 62 16.7 57 13.9 84 84 Calm 30.09 1019 10 16 0.00 0.00
4:53 am 04:53 Clear 58 14.4 55 12.8 90 90 Calm 30.08 1019 10 16 0.00 0.00
5:53 am 05:53 Clear 59 15 56 13.3 90 90 Calm 30.10 1019 10 16 0.00 0.00
6:53 am 06:53 Sunny 59 15 56 13.3 90 90 NE 3 6 30.14 1021 10 16 0.00 0.00
7:53 am 07:53 Sunny 66 18.9 60 15.6 81 81 S 3 6 30.16 1021 10 16 0.00 0.00
8:53 am 08:53 Sunny 70 21.1 60 15.6 71 71 S 5 7 30.17 1022 10 16 0.00 0.00
9:53 am 09:53 Sunny 75 23.9 60 15.6 60 60 SSE 8 13 30.18 1022 10 16 0.00 0.00
10:53 am 10:53 Sunny 77 25 60 15.6 56 56 S 14 22 30.17 1022 10 16 0.00 0.00
11:53 am 11:53 Sunny 80 26.7 60 15.6 51 51 S 13 20 30.16 1021 10 16 0.00 0.00
12:53 pm 12:53 Sunny 81 27.2 59 15 47 47 S 12 19 30.16 1021 10 16 0.00 0.00
1:53 pm 13:53 Sunny 83 28.3 60 15.6 46 46 S 13 20 30.14 1021 10 16 0.00 0.00
2:53 pm 14:53 Sunny 84 28.9 61 16.1 46 46 S 10 17 30.16 1021 10 16 0.00 0.00
3:53 pm 15:53 Sunny 84 28.9 60 15.6 44 44 SSE 10 17 30.14 1021 10 16 0.00 0.00
4:53 pm 16:53 Sunny 85 29.4 60 15.6 43 43 S 8 13 30.14 1021 10 16 0.00 0.00
5:53 pm 17:53 Sunny 84 28.9 61 16.1 46 46 SSE 10 17 30.13 1020 10 16 0.00 0.00
6:53 pm 18:53 Sunny 82 27.8 62 16.7 51 51 S 8 13 30.12 1020 10 16 0.00 0.00
7:53 pm 19:53 Sunny 80 26.7 63 17.2 56 56 SSE 8 13 30.11 1020 10 16 0.00 0.00
8:53 pm 20:53 Sunny 78 25.6 64 17.8 62 62 SE 5 7 30.12 1020 10 16 0.00 0.00
9:53 pm 21:53 Clear 77 25 63 17.2 62 62 ESE 5 7 30.12 1020 10 16 0.00 0.00
10:53 pm 22:53 Clear 74 23.3 65 18.3 74 74 E 6 9 30.13 1020 10 16 0.00 0.00
11:53 pm 23:53 Clear 73 22.8 66 18.9 79 79 ESE 8 13 30.12 1020 10 16 0.00 0.00

Powered by AerisWeather